Location: Great Snoring
(52.8667°N, 0.8833°E)
Time: 00:42:41
(UTC+00:00)

Cosmos 1570 Rocket - Pass Details

Date: 19 May 2025
Orbit: 759 x 785 km, 74.1° (Epoch: 18 June)

Event Time Altitude Azimuth Distance (km) Brightness Sun altitude
Rises 21:19:48 0° 193° (SSW) 3,218 6.8 -10.0°
Reaches altitude 10° 21:22:10 10° 191° (S) 2,299 6.1 -10.2°
Maximum altitude 21:27:20 65° 110° (ESE) 851 4.0 -10.6°
Drops below altitude 10° 21:32:34 10° 30° (NNE) 2,333 6.9 -11.1°
Sets 21:34:59 0° 28° (NNE) 3,269 7.7 -11.3°
